Pian Rosa, Italy

1:28 PM CEST on April 25, 2017 (GMT +0200)
Pian Rosa

Weather History for LIMH - December, 2012

Change the Weather History Date:

Tuesday, December 4, 2012

  Actual Average Record
Temperature  
Mean Temperature 8 °F -  
Max Temperature 15 °F 19 °F 27 °F (2013)
Min Temperature 1 °F 9 °F -9 °F (2010)
Degree Days  
Heating Degree Days 57    
Moisture  
Dew Point 3 °F    
Average Humidity 78    
Maximum Humidity 86    
Minimum Humidity 66    
Precipitation  
Precipitation 0.08 in - - ()
Sea Level Pressure  
Sea Level Pressure 29.47 in    
Wind  
Wind Speed 16 mph ()    
Max Wind Speed 39 mph    
Max Gust Speed -    
Visibility 0.3 miles    
Events Fog , Snow    
Averages and records for this station are not official NWS values.
T = Trace of Precipitation, MM = Missing Value Source: Averaged Metar Reports

Daily Weather History Graph

Daily Weather History Graph

Search for Another Location

Airport or City:

Trip Planner

Search our weather history database for the weather conditions in past years. The results will help you decide how hot, cold, wet, or windy it might be!

Date:

Astronomy

Dec. 04, 2012 Rise Set
Actual Time 7:54 AM CET 4:44 PM CET
Civil Twilight 7:20 AM CET 5:18 PM CET
Nautical Twilight 6:42 AM CET 5:56 PM CET
Astronomical Twilight 6:06 AM CET 6:32 PM CET
Moon 10:27 PM CET (12/4) 11:29 AM CET (12/4)
Length of Visible Light 9h 58m
Length of Day
8h 50m
Waning Gibbous, 72% of the Moon is Illuminated
Dec 4
Waning Gibbous
Dec 6
Last Quarter
Dec 13
New
Dec 20
First Quarter
Dec 28
Full

Hourly Weather History & Observations

Time (CET) Temp. Windchill Dew Point Humidity Pressure Visibility Wind Dir Wind Speed Gust Speed Precip Events Conditions
12:55 AM 15.8 °F 2.7 °F 12.2 °F 86% 29.74 in 0.1 mi WSW 11.5 mph - N/A Fog , Snow Light Snow
1:00 AM 17 °F - 13 °F 75%  in 0 mi WSW 11.5 mph - - Snow Light Snow
1:55 AM 15.8 °F 1.4 °F 12.2 °F 86% 29.74 in 0.1 mi SSW 13.8 mph - N/A Fog , Snow Light Snow
2:55 AM 15.8 °F -0.2 °F 12.2 °F 86% 29.71 in 0.1 mi SSW 17.3 mph - N/A Fog , Snow Light Snow
3:55 AM 15.8 °F -0.2 °F 10.4 °F 79% 29.68 in 0.1 mi SSW 17.3 mph - N/A Fog , Snow Light Snow
4:00 AM 15 °F - 11 °F 78%  in 0 mi SSW 17.3 mph - - Snow Light Snow
4:55 AM 15.8 °F 1.4 °F 10.4 °F 79% 29.62 in 0.1 mi SSW 13.8 mph - N/A Fog , Snow Light Snow
5:55 AM 15.8 °F 3.4 °F 10.4 °F 79% 29.59 in 0.1 mi SSW 10.4 mph - N/A Fog , Snow Light Snow
6:55 AM 15.8 °F 4.2 °F 10.4 °F 79% 29.56 in 0.1 mi WSW 9.2 mph - N/A Fog , Snow Light Snow
7:00 AM 15 °F - 11 °F 78%  in 0 mi WSW 9.2 mph - - Snow Light Snow
7:55 AM 12.2 °F -1.0 °F 8.6 °F 85% 29.53 in 0.1 mi West 10.4 mph - N/A Fog , Snow Light Snow
8:55 AM 12.2 °F -5.3 °F 6.8 °F 79% 29.50 in 0.1 mi NE 18.4 mph - N/A Fog , Snow Light Snow
9:55 AM 12.2 °F -4.8 °F 8.6 °F 85% 29.50 in 0.1 mi West 17.3 mph - N/A Fog , Snow Light Snow
10:00 AM 13 °F - 8 °F 74%  in 0 mi West 17.3 mph - - Snow Light Snow
10:55 AM 8.6 °F -13.8 °F 3.2 °F 79% 29.47 in 0.1 mi West 28.8 mph - N/A Fog , Snow Light Snow
11:55 AM 6.8 °F -14.3 °F 1.4 °F 79% 29.44 in 3.1 mi WNW 23.0 mph - N/A   Mist
12:55 PM 6.8 °F -12.4 °F 1.4 °F 79% 29.42 in 1.2 mi North 18.4 mph - N/A   Mist
1:00 PM 6 °F - 1 °F 71%  in 1 mi North 18.4 mph - -   Partly Cloudy
1:55 PM 6.8 °F -10.7 °F 1.4 °F 79% 29.39 in 0.7 mi West 15.0 mph - N/A   Scattered Clouds
2:55 PM 5.0 °F -10.8 °F -0.4 °F 78% 29.36 in 0.1 mi NNW 11.5 mph - N/A Fog , Snow Light Snow
3:55 PM 3.2 °F -16.5 °F -2.2 °F 78% 29.36 in 0.1 mi North 17.3 mph - N/A Fog , Snow Light Snow
4:00 PM 4 °F - -1 °F 68%  in 0 mi North 17.3 mph - - Snow Light Snow
4:55 PM 3.2 °F -19.0 °F -2.2 °F 78% 29.36 in 0.1 mi North 23.0 mph - N/A Fog , Snow Light Snow
5:55 PM 1.4 °F -23.5 °F -4.0 °F 78% 29.33 in 0.1 mi North 28.8 mph - N/A Fog , Snow Light Snow
6:55 PM 1.4 °F -20.5 °F -4.0 °F 78% 29.33 in 0.1 mi NNE 20.7 mph - N/A Fog , Snow Light Snow
7:00 PM 2 °F - -4 °F 66%  in 0 mi NNE 20.7 mph - - Snow Light Snow
7:55 PM 1.4 °F -23.5 °F -4.0 °F 78% 29.36 in 0.1 mi North 28.8 mph - N/A Fog , Snow Light Snow
8:55 PM 1.4 °F -23.5 °F -4.0 °F 78% 29.36 in 0.1 mi North 28.8 mph - N/A Fog , Snow Light Snow
9:55 PM 1.4 °F -22.7 °F -4.0 °F 78% 29.36 in 0.1 mi NNW 26.5 mph - N/A Fog , Snow Light Snow
10:00 PM 1 °F - -4 °F 69%  in 0 mi NNW 26.5 mph - - Snow Light Snow
10:55 PM 1.4 °F -26.6 °F -4.0 °F 78% 29.33 in 0.1 mi North 39.1 mph - N/A Fog , Snow Light Snow
11:55 PM 1.4 °F -26.0 °F -4.0 °F 78% 29.33 in 0.1 mi North 36.8 mph - N/A Fog , Snow Light Snow